Overview Statistics Trail Chart Weather Telemetry Raw packets
 

This is the latest recevied weather packets stored in our database for station/object IU3NMQ-10. If no packets are shown the sender has not sent any weather packets the latest 10 day(s).

<< 1 2 3 4 5 6 7 >>
Time Temp. Humidity Pressure Rain* Wind** Luminosity Snow
1788140000 23.89° C 69% 1010.5 hPa - - - -
1788139100 23.89° C 68% 1010.6 hPa - - - -
1788138200 23.89° C 69% 1010.6 hPa - - - -
1788137300 24.44° C 69% 1010.7 hPa - - - -
1788136399 24.44° C 68% 1010.6 hPa - - - -
1788135499 24.44° C 70% 1010.7 hPa - - - -
1788134599 24.44° C 69% 1010.9 hPa - - - -
1788133699 24.44° C 68% 1010.8 hPa - - - -
1788132799 25° C 67% 1010.7 hPa - - - -
1788131899 25° C 65% 1010.7 hPa - - - -
1788130999 25° C 66% 1010.8 hPa - - - -
1788130099 25.56° C 65% 1010.7 hPa - - - -
1788129198 25.56° C 63% 1010.8 hPa - - - -
1788128298 25.56° C 63% 1010.7 hPa - - - -
1788127393 25.56° C 63% 1010.8 hPa - - - -
1788126493 26.11° C 62% 1010.7 hPa - - - -
1788125593 26.11° C 63% 1010.7 hPa - - - -
1788124692 26.67° C 62% 1010.6 hPa - - - -
1788123792 26.67° C 62% 1010.6 hPa - - - -
1788122892 26.67° C 63% 1010.5 hPa - - - -
1788121992 27.22° C 60% 1010.4 hPa - - - -
1788121092 27.22° C 60% 1010.4 hPa - - - -
1788120192 27.22° C 59% 1010.4 hPa - - - -
1788119292 27.78° C 60% 1010.3 hPa - - - -
1788118392 27.78° C 60% 1010.3 hPa - - - -

* Rain since midnight (hover to see other rain measurements)
** Current wind speed in m/s (hover to see current wind gust speed)